SCP
0 0 0 0 0 0 0 4 3 3 2 1 2 1 2 2 1 2 2 2 2 1 1 1 1 0 0 0 0 0 0 0
0 0 0 0 0 0 1 3 4 4 3 2 2 2 2 2 1 2 2 3 2 1 1 1 1 1 0 0 0 0 0 0
0 0 0 0 0 0 0 2 4 4 7 2 2 3 2 1 1 2 2 2 1 1 1 2 1 1 1 1 0 0 0 0
0 0 0 0 0 0 1 3 2 3 3 6 3 5 3 2 3 3 2 2 2 2 2 2 2 1 0 0 0 0 0 0
0 0 0 0 0 1 3 4 4 4 3 3 7 5 6 4 4 4 2 2 3 2 2 2 2 1 1 0 0 0 0 0
0 0 0 0 1 1 4 1 5 5 5 4 5 4 4 4 3 3 2 4 3 2 2 1 2 2 1 1 0 0 0 0
0 0 0 0 2 3 4 3 6 5 5 5 4 8 4 4 3 2 2 2 2 2 2 1 2 2 1 1 0 0 0 0
0 0 0 0 2 3 4 5 8 5 5 6 4 6 5 3 3 3 3 3 2 2 2 2 2 1 1 0 0 0 0 0
0 0 0 0 2 4 5 7 9 5 6 4 3 3 3 2 3 3 3 3 3 3 2 1 1 1 1 0 0 0 0 0
0 0 0 3 2 3 4 6 6 5 5 3 3 2 1 1 2 2 3 2 2 2 1 1 1 1 0 0 0 0 0 0
0 0 0 2 1 1 2 3 3 4 4 3 3 2 2 1 2 3 2 2 2 1 1 1 0 0 0 0 0 0 0 0
0 0 1 1 1 1 1 2 2 4 4 2 2 1 2 1 1 2 3 2 1 1 0 0 0 0 0 0 0 0 0 0
0 0 1 0 1 1 1 1 2 2 2 2 1 1 1 2 2 2 2 1 1 0 0 0 0 0 0 0 0 0 0 0
0 0 -0 0 0 0 1 1 1 1 2 1 1 1 2 2 1 1 1 1 1 0 0 0 0 0 0 0 0 0 -0 -0
0 -0 -0 0 0 0 0 0 1 1 1 1 1 1 1 2 1 1 1 0 0 0 0 0 0 0 0 0 0 0 -0 -0
0 0 0 0 0 0 0 0 0 0 0 0 1 1 0 1 1 0 0 0 0 0 0 -0 0 0 0 0 0 0 0 0
-0 -0 0 0 0 0 0 0 0 0 0 1 1 0 1 1 0 0 0 0 0 0 0 -0 0 0 0 0 0 0 0 -0
-0 0 0 0 -0 0 0 0 0 0 0 0 0 0 0 0 0 0 0 0 0 -0 -0 0 0 0 0 0 0 -0 -0 -0
-0 -0 -0 -0 0 0 0 0 0 0 0 0 0 0 0 0 0 0 0 0 -0 -0 -0 -0 -0 0 0 0 0 0 -0 -0
-0 -0 -0 -0 0 -0 0 0 0 0 0 0 0 0 0 0 0 0 0 -0 0 -0 -0 -0 -0 0 -0 -0 -0 -0 0 -0
Wind_Speed_500mb
48 45 45 45 43 44 37 56 53 55 52 47 55 53 63 66 59 54 46 30 28 24 24 29 34 30 28 25 21 22 14 3
51 46 45 44 42 43 40 47 51 57 60 53 64 61 54 48 54 47 40 37 35 26 23 23 25 29 29 19 24 27 18 16
58 55 40 46 40 39 42 38 49 57 69 57 63 57 44 38 33 38 42 37 26 22 26 36 38 33 23 32 30 32 28 34
59 57 46 37 40 41 36 38 49 58 70 69 66 61 50 47 48 45 43 36 29 34 35 38 42 31 33 33 36 37 43 35
67 58 40 32 40 42 41 47 48 63 73 65 64 72 54 57 52 42 41 37 32 35 36 40 36 37 35 40 39 38 35 34
44 45 47 45 51 43 45 45 48 64 75 65 69 54 66 41 47 47 48 45 36 33 30 37 32 45 42 44 41 40 35 31
52 53 50 62 54 46 53 48 50 65 73 66 62 48 51 55 35 34 34 32 27 24 34 33 38 44 42 40 37 35 31 28
53 49 48 58 62 48 48 52 53 62 66 58 51 53 46 39 42 34 30 27 24 28 37 41 40 40 36 36 35 33 31 29
66 50 48 66 45 43 45 44 53 61 62 48 53 52 47 42 36 33 33 32 28 29 36 38 37 37 34 33 33 28 28 27
70 62 52 56 47 45 49 49 59 60 57 44 48 45 34 36 34 31 33 29 25 30 33 34 36 35 32 28 29 27 29 31
75 70 63 45 36 35 39 49 57 54 45 45 41 39 31 30 29 30 33 31 25 31 34 30 30 25 24 22 23 28 31 30
55 60 46 36 28 26 29 42 52 52 45 48 42 45 31 26 21 28 23 15 20 22 27 32 23 18 17 20 23 29 31 34
56 49 43 32 29 28 36 47 45 52 47 44 44 35 28 19 20 19 19 26 31 25 21 14 14 15 16 18 20 23 24 27
34 40 44 41 33 37 45 42 51 50 45 39 38 28 22 20 23 15 18 24 26 19 11 8 17 13 10 9 7 8 11 13
54 48 48 43 42 43 43 53 47 51 40 37 25 33 25 20 13 13 17 17 14 9 12 16 14 10 5 3 3 5 7 7
47 45 45 45 46 46 46 50 44 45 38 32 23 18 12 12 12 10 8 9 9 14 10 7 5 6 7 5 7 8 7 3
40 43 44 48 49 49 51 45 44 40 34 30 23 22 19 17 14 9 4 7 11 12 5 3 4 1 8 14 18 15 13 7
45 45 50 50 48 50 45 43 41 37 32 29 22 18 9 6 5 6 7 19 18 10 3 7 2 4 6 10 11 13 14 10
48 49 51 51 50 48 46 42 38 35 32 25 27 15 11 7 9 9 15 18 17 11 8 9 8 6 6 5 6 9 9 7
50 52 52 52 49 47 44 38 36 33 29 25 16 13 14 16 13 13 15 19 18 15 5 1 8 9 11 10 8 5 13 11
Wind_Direction_500mb
292 287 282 287 298 296 266 209 223 233 233 223 237 228 233 236 238 244 251 257 266 277 277 292 294 294 306 313 308 310 311 337
284 279 280 289 295 288 288 224 218 229 227 209 231 232 239 233 232 237 235 241 252 254 259 239 277 289 289 272 288 294 265 237
275 275 278 287 286 283 270 230 229 234 219 214 220 227 231 230 223 232 239 243 247 251 256 257 255 248 258 270 248 249 241 253
272 273 272 282 294 281 262 247 232 249 233 218 214 214 218 221 208 223 239 250 242 235 245 261 270 281 250 249 253 244 248 256
259 262 273 285 292 274 258 242 231 245 242 221 210 218 210 214 209 216 233 244 249 240 240 255 276 264 255 245 248 251 253 255
256 264 290 297 286 264 256 242 239 239 238 229 208 211 210 218 224 218 229 237 254 247 251 259 259 267 267 258 258 256 252 239
264 266 272 282 276 262 249 245 229 232 229 228 211 210 219 209 223 220 236 253 272 269 268 273 264 271 271 264 260 257 248 232
266 249 270 277 279 256 247 237 218 227 224 220 209 209 219 208 213 219 224 242 250 248 265 279 273 271 271 263 260 256 247 230
288 277 268 284 247 227 226 221 208 215 214 205 197 205 210 200 214 219 223 230 239 263 269 270 275 275 274 266 257 247 237 223
281 278 280 263 240 242 232 221 203 208 203 201 196 198 218 204 216 224 236 246 258 268 264 271 275 277 276 265 252 245 235 232
260 262 264 233 235 241 225 209 201 194 197 185 190 192 203 196 204 208 243 258 257 259 276 283 284 276 270 256 252 238 242 246
257 248 215 213 217 220 193 180 185 186 182 177 186 187 185 204 221 229 223 240 250 284 280 285 283 272 269 257 256 255 250 243
243 253 186 181 186 175 176 180 181 173 171 183 181 180 191 174 187 239 238 258 271 282 274 293 283 279 270 271 260 258 252 244
231 169 155 154 156 164 172 176 158 174 164 179 180 187 174 190 200 231 251 262 276 278 231 304 291 289 281 270 249 232 220 208
129 141 145 147 150 160 166 156 169 169 166 178 167 195 195 198 178 234 260 279 295 239 175 222 261 269 250 242 234 270 243 202
132 140 143 146 155 160 157 161 163 161 169 164 173 171 149 172 196 235 232 237 234 151 193 234 245 236 191 225 244 249 257 225
138 142 146 153 157 158 159 162 161 163 163 161 166 160 173 196 210 245 225 189 130 118 213 168 152 268 245 224 231 233 235 223
145 148 152 153 155 158 160 161 163 163 164 169 165 169 195 222 182 199 161 135 137 165 111 65 99 290 258 236 221 208 205 200
148 151 150 152 155 159 161 163 163 168 165 172 176 186 176 203 205 185 166 147 156 138 72 21 338 352 309 277 243 210 211 229
151 150 152 156 156 159 163 164 168 167 169 179 190 190 184 201 159 166 176 150 139 133 148 254 340 333 316 306 293 214 238 237
Wind_Speed_850mb
48 45 45 45 43 44 37 56 53 55 52 47 55 53 63 66 59 54 46 30 28 24 24 29 34 30 28 25 21 22 14 3
51 46 45 44 42 43 40 47 51 57 60 53 64 61 54 48 54 47 40 37 35 26 23 23 25 29 29 19 24 27 18 16
58 55 40 46 40 39 42 38 49 57 69 57 63 57 44 38 33 38 42 37 26 22 26 36 38 33 23 32 30 32 28 34
59 57 46 37 40 41 36 38 49 58 70 69 66 61 50 47 48 45 43 36 29 34 35 38 42 31 33 33 36 37 43 35
67 58 40 32 40 42 41 47 48 63 73 65 64 72 54 57 52 42 41 37 32 35 36 40 36 37 35 40 39 38 35 34
44 45 47 45 51 43 45 45 48 64 75 65 69 54 66 41 47 47 48 45 36 33 30 37 32 45 42 44 41 40 35 31
52 53 50 62 54 46 53 48 50 65 73 66 62 48 51 55 35 34 34 32 27 24 34 33 38 44 42 40 37 35 31 28
53 49 48 58 62 48 48 52 53 62 66 58 51 53 46 39 42 34 30 27 24 28 37 41 40 40 36 36 35 33 31 29
66 50 48 66 45 43 45 44 53 61 62 48 53 52 47 42 36 33 33 32 28 29 36 38 37 37 34 33 33 28 28 27
70 62 52 56 47 45 49 49 59 60 57 44 48 45 34 36 34 31 33 29 25 30 33 34 36 35 32 28 29 27 29 31
75 70 63 45 36 35 39 49 57 54 45 45 41 39 31 30 29 30 33 31 25 31 34 30 30 25 24 22 23 28 31 30
55 60 46 36 28 26 29 42 52 52 45 48 42 45 31 26 21 28 23 15 20 22 27 32 23 18 17 20 23 29 31 34
56 49 43 32 29 28 36 47 45 52 47 44 44 35 28 19 20 19 19 26 31 25 21 14 14 15 16 18 20 23 24 27
34 40 44 41 33 37 45 42 51 50 45 39 38 28 22 20 23 15 18 24 26 19 11 8 17 13 10 9 7 8 11 13
54 48 48 43 42 43 43 53 47 51 40 37 25 33 25 20 13 13 17 17 14 9 12 16 14 10 5 3 3 5 7 7
47 45 45 45 46 46 46 50 44 45 38 32 23 18 12 12 12 10 8 9 9 14 10 7 5 6 7 5 7 8 7 3
40 43 44 48 49 49 51 45 44 40 34 30 23 22 19 17 14 9 4 7 11 12 5 3 4 1 8 14 18 15 13 7
45 45 50 50 48 50 45 43 41 37 32 29 22 18 9 6 5 6 7 19 18 10 3 7 2 4 6 10 11 13 14 10
48 49 51 51 50 48 46 42 38 35 32 25 27 15 11 7 9 9 15 18 17 11 8 9 8 6 6 5 6 9 9 7
50 52 52 52 49 47 44 38 36 33 29 25 16 13 14 16 13 13 15 19 18 15 5 1 8 9 11 10 8 5 13 11
Wind_Direction_850mb
292 287 282 287 298 296 266 209 223 233 233 223 237 228 233 236 238 244 251 257 266 277 277 292 294 294 306 313 308 310 311 337
284 279 280 289 295 288 288 224 218 229 227 209 231 232 239 233 232 237 235 241 252 254 259 239 277 289 289 272 288 294 265 237
275 275 278 287 286 283 270 230 229 234 219 214 220 227 231 230 223 232 239 243 247 251 256 257 255 248 258 270 248 249 241 253
272 273 272 282 294 281 262 247 232 249 233 218 214 214 218 221 208 223 239 250 242 235 245 261 270 281 250 249 253 244 248 256
259 262 273 285 292 274 258 242 231 245 242 221 210 218 210 214 209 216 233 244 249 240 240 255 276 264 255 245 248 251 253 255
256 264 290 297 286 264 256 242 239 239 238 229 208 211 210 218 224 218 229 237 254 247 251 259 259 267 267 258 258 256 252 239
264 266 272 282 276 262 249 245 229 232 229 228 211 210 219 209 223 220 236 253 272 269 268 273 264 271 271 264 260 257 248 232
266 249 270 277 279 256 247 237 218 227 224 220 209 209 219 208 213 219 224 242 250 248 265 279 273 271 271 263 260 256 247 230
288 277 268 284 247 227 226 221 208 215 214 205 197 205 210 200 214 219 223 230 239 263 269 270 275 275 274 266 257 247 237 223
281 278 280 263 240 242 232 221 203 208 203 201 196 198 218 204 216 224 236 246 258 268 264 271 275 277 276 265 252 245 235 232
260 262 264 233 235 241 225 209 201 194 197 185 190 192 203 196 204 208 243 258 257 259 276 283 284 276 270 256 252 238 242 246
257 248 215 213 217 220 193 180 185 186 182 177 186 187 185 204 221 229 223 240 250 284 280 285 283 272 269 257 256 255 250 243
243 253 186 181 186 175 176 180 181 173 171 183 181 180 191 174 187 239 238 258 271 282 274 293 283 279 270 271 260 258 252 244
231 169 155 154 156 164 172 176 158 174 164 179 180 187 174 190 200 231 251 262 276 278 231 304 291 289 281 270 249 232 220 208
129 141 145 147 150 160 166 156 169 169 166 178 167 195 195 198 178 234 260 279 295 239 175 222 261 269 250 242 234 270 243 202
132 140 143 146 155 160 157 161 163 161 169 164 173 171 149 172 196 235 232 237 234 151 193 234 245 236 191 225 244 249 257 225
138 142 146 153 157 158 159 162 161 163 163 161 166 160 173 196 210 245 225 189 130 118 213 168 152 268 245 224 231 233 235 223
145 148 152 153 155 158 160 161 163 163 164 169 165 169 195 222 182 199 161 135 137 165 111 65 99 290 258 236 221 208 205 200
148 151 150 152 155 159 161 163 163 168 165 172 176 186 176 203 205 185 166 147 156 138 72 21 338 352 309 277 243 210 211 229
151 150 152 156 156 159 163 164 168 167 169 179 190 190 184 201 159 166 176 150 139 133 148 254 340 333 316 306 293 214 238 237